Location: Hilton Head Island
(32.2163°N, 80.7526°W)
Time: 16:11:40
(UTC-05:00)

Explorer 11/Cluster Stage 4 - Pass Details

Date: 16 February 2026
Orbit: 463 x 1176 km, 28.8° (Epoch: 6 March)

Event Time Altitude Azimuth Distance (km) Brightness Sun altitude
Rises 17:29:09 0° 267° (W) 2,475 10.9 7.5°
Reaches altitude 10° 17:31:22 10° 258° (WSW) 1,618 10.9 7.0°
Maximum altitude 17:34:43 35° 191° (SSW) 810 7.1 6.4°
Drops below altitude 10° 17:38:24 10° 125° (SE) 1,784 8.1 5.6°
Sets 17:40:58 0° 116° (ESE) 2,776 9.0 5.1°
